Weather History for Guymon, OK

Change the Weather History Date:

Monday, August 18, 2014

  Actual Average Record
Temperature  
Mean Temperature 85 °F 78 °F  
Max Temperature 102 °F 91 °F 103 °F (2011)
Min Temperature 68 °F 65 °F 57 °F (2002)
Degree Days  
Heating Degree Days 0 0  
Month to date heating degree days 0 0  
Since 1 June heating degree days 9 8  
Since 1 July heating degree days 4 0  
Cooling Degree Days 20 13  
Month to date cooling degree days 272 248  
Year to date cooling degree days 1225 1090  
Since 1 June cooling degree days 1047 982  
Growing Degree Days 35 (Base 50)    
Moisture  
Dew Point 52 °F    
Average Humidity 44    
Maximum Humidity 73    
Minimum Humidity 15    
Precipitation  
Precipitation 0.00 in 0.11 in 2.35 in (2008)
Month to date precipitation 0.35 1.63  
Year to date precipitation 8.06 13.48  
Snow  
Snow 0.00 in - - ()
Month to date snowfall 0.0  
Since 1 June snowfall 0.0  
Since 1 July snowfall 0.0  
Snow Depth 0.00 in    
Sea Level Pressure  
Sea Level Pressure 29.78 in    
Wind  
Wind Speed 13 mph (South)    
Max Wind Speed 24 mph    
Max Gust Speed 32 mph    
Visibility 10 miles    
Events Thunderstorm    
T = Trace of Precipitation, MM = Missing Value Source: NWS Daily Summary

Daily Weather History Graph

Daily Weather History Graph

Search for Another Location

Airport:

Trip Planner

Search our weather history database for the weather conditions in past years. The results will help you decide how hot, cold, wet, or windy it might be!

Date:

Astronomy

Aug. 18, 2014 Rise Set
Actual Time 7:05 AM CDT 8:33 PM CDT
Civil Twilight 6:38 AM CDT 9:00 PM CDT
Nautical Twilight 6:05 AM CDT 9:33 PM CDT
Astronomical Twilight 5:31 AM CDT 10:07 PM CDT
Moon 1:16 AM CDT 3:35 PM CDT
Length of Visible Light 14h 21m
Length of Day
13h 27m
Last Quarter, 38% of the Moon is Illuminated
Aug 18
Last Quarter
Aug 25
New
Sep 2
First Quarter
Sep 8
Full
Sep 15
Last Quarter

Hourly Weather History & Observations

Time (CDT) Temp. Heat Index Dew Point Humidity Pressure Visibility Wind Dir Wind Speed Gust Speed Precip Events Conditions
12:53 AM 72.0 °F - 57.0 °F 59% 29.83 in 10.0 mi SW 3.5 mph - N/A   Clear
2:53 AM 75.0 °F - 54.0 °F 48% 29.83 in 10.0 mi SW 11.5 mph - N/A   Clear
3:53 AM 69.1 °F - 55.0 °F 61% 29.82 in 10.0 mi SW 6.9 mph - N/A   Clear
4:53 AM 68.0 °F - 55.9 °F 65% 29.81 in 10.0 mi SE 4.6 mph - N/A   Clear
5:53 AM 72.0 °F - 55.0 °F 55% 29.84 in 10.0 mi East 12.7 mph - N/A   Clear
6:53 AM 70.0 °F - 55.9 °F 61% 29.83 in 10.0 mi ESE 8.1 mph - N/A   Clear
7:53 AM 70.0 °F - 60.1 °F 71% 29.86 in 10.0 mi ESE 9.2 mph - N/A   Clear
8:53 AM 73.9 °F - 59.0 °F 59% 29.86 in 10.0 mi SSE 9.2 mph - N/A   Clear
9:53 AM 82.0 °F 82.1 °F 59.0 °F 45% 29.84 in 10.0 mi South 11.5 mph - N/A   Clear
10:53 AM 87.1 °F 85.9 °F 57.0 °F 36% 29.82 in 10.0 mi South 12.7 mph - N/A   Clear
11:53 AM 93.9 °F 91.7 °F 54.0 °F 26% 29.80 in 10.0 mi SSW 18.4 mph 24.2 mph N/A   Clear
12:53 PM 98.1 °F - 51.1 °F 20% 29.78 in 10.0 mi SW 21.9 mph 27.6 mph N/A   Clear
1:53 PM 100.0 °F - 48.0 °F 17% 29.75 in 10.0 mi SSW 20.7 mph - N/A   Clear
2:53 PM 102.0 °F - 46.9 °F 16% 29.73 in 10.0 mi SSW 17.3 mph 26.5 mph N/A   Clear
3:53 PM 100.9 °F - 44.1 °F 14% 29.73 in 10.0 mi SSW 17.3 mph 25.3 mph N/A   Clear
4:53 PM 100.0 °F - 45.0 °F 15% 29.70 in 10.0 mi SSW 17.3 mph 24.2 mph N/A   Clear
5:53 PM 99.0 °F - 46.0 °F 16% 29.68 in 10.0 mi SSW 16.1 mph 23.0 mph N/A   Clear
6:53 PM 98.1 °F - 46.0 °F 17% 29.68 in 10.0 mi South 11.5 mph - N/A   Mostly Cloudy
7:53 PM 93.0 °F - 48.0 °F 21% 29.71 in 10.0 mi ESE 4.6 mph - N/A Thunderstorm Clear
8:10 PM 91.9 °F - 43.0 °F 18% 29.88 in 10.0 mi Calm Calm - N/A   Partly Cloudy
8:53 PM 89.1 °F - 46.0 °F 22% 29.73 in 10.0 mi SE 11.5 mph - N/A   Partly Cloudy
9:53 PM 84.0 °F - 48.0 °F 28% 29.75 in 10.0 mi SE 16.1 mph 21.9 mph N/A   Clear
11:53 PM 79.0 °F - 53.1 °F 40% 29.75 in 10.0 mi South 13.8 mph - N/A   Clear